Regional Weather Roundup
Issued by NWS

Home | Current Version | Previous Version | Text Only | Print | Product List | Glossary On
Versions: 1 2 3 4 5 6 7 8 9 10 11 12 13 14 15 16 17 18 19 20 21 22 23 24 25 26 27 28 29 30 31 32 33 34 35 36 37 38 39 40 41 42 43 44 45 46 47 48 49 50
000
ASUS43 KDTX 201110
RWRMI
MICHIGAN HOURLY REGIONAL WEATHER ROUNDUP
NATIONAL WEATHER SERVICE DETROIT/PONTIAC MI
700 AM EDT SUN APR 20 2014

NOTE: "FAIR" INDICATES FEW OR NO CLOUDS BELOW 12,000 FEET WITH NO
SIGNIFICANT WEATHER AND/OR OBSTRUCTION TO VISIBILITY.

MIZ047>049-052>055-059>063-066>070-074>076-081>083-201200-
SOUTHEAST LOWER MICHIGAN

CITY           SKY/WX    TMP DP  RH WIND       PRES   REMARKS
ADRIAN         CLEAR     34  28  79 NE5       30.31S
ALMA           PTCLDY    34  30  84 E3        30.28F
ANN ARBOR      PTCLDY    31  26  82 CALM      30.31S
BAD AXE        PTCLDY    34  29  81 SE5       30.31F
DETROIT CITY   PTCLDY    39  30  70 CALM      30.32F
DETROIT        MOCLDY    37  29  72 CALM      30.32S
FLINT          CLEAR     34  29  82 E3        30.30F
GROSSE ILE     PTCLDY    37  30  75 E5        30.31R
HILLSDALE      PTCLDY    37  32  80 SE6       30.28S
HOWELL         PTCLDY    34  29  81 SE6       30.29S

CITY           SKY/WX    TMP DP  RH WIND       PRES   REMARKS
JACKSON        PTCLDY    36  28  73 SE6       30.29F
LAMBERTVILLE   CLEAR     34  32  93 CALM      30.31S
LANSING        CLEAR     40  28  62 SE8       30.28F
LAPEER         NOT AVBL
MASON          PTCLDY    37  30  77 SE6       30.28F
MONROE         PTCLDY    34  30  86 CALM      30.30S
MT. CLEMENS    MOCLDY    34  30  86 CALM      30.31S
PONTIAC        PTCLDY    39  27  62 SE6       30.30S
PORT HOPE        N/A     33  29  85 CALM      30.30F
PORT HURON     PTCLDY    30  30 100 CALM      30.32S FOG
TRI CITIES       N/A     35  30  82 SE5       30.30F
YPSILANTI      PTCLDY    35  27  72 CALM      30.31F
$$
MIZ043>046-050>051-056>058-064>065-071>073-077>080-201200-
SOUTHWEST LOWER MICHIGAN

CITY           SKY/WX    TMP DP  RH WIND       PRES   REMARKS
BATTLE CREEK   CLEAR     39  29  67 SE7       30.27F
BENTON HARBOR  CLEAR     41  29  62 SE8       30.24F
BIG RAPIDS     CLOUDY    42  30  62 SE6       30.24S
COLDWATER      CLEAR     37  31  76 SE5       30.28S
HOLLAND        CLEAR     43  29  57 SE8       30.24F
GRAND RAPIDS   MOCLDY    41  28  60 SE6       30.25F
KALAMAZOO      CLEAR     40  30  67 S5        30.26F
MARSHALL       PTCLDY    35  28  77 E5        30.27F
MUSKEGON       PTCLDY    44  27  51 SE9       30.23S
$$
MIZ016>042-201200-
NORTHERN LOWER MICHIGAN

CITY           SKY/WX    TMP DP  RH WIND       PRES   REMARKS
ALPENA         CLOUDY    36  30  79 SE5       30.30S
BEAVER ISLAND  LGT RAIN  40  35  83 S9        30.21S
BELLAIRE       CLOUDY    47  28  48 S7        30.23S
CADILLAC       CLOUDY    43  29  57 S8        30.23S
CHARLEVOIX     LGT RAIN  43  36  77 SE5       30.25F
FRANKFORT      CLOUDY    49  27  42 SE3       30.20S
GAYLORD        CLOUDY    40  30  67 S10       30.24F
GRAYLING       MOCLDY    35  31  83 CALM      30.26S
HARBOR SPRINGS RAIN      40  38  91 CALM      30.23S
HOUGHTON LAKE  MOCLDY    39  30  70 S6        30.27R
MANISTEE       CLOUDY    46  25  42 SE6       30.22S
OSCODA         MOCLDY    27  24  88 CALM      30.30F
PELLSTON       LGT RAIN  37  33  85 CALM      30.24F
TRAVERSE CITY  CLOUDY    48  27  44 SE3       30.21R
$$
MIZ007>008-015-201200-
EASTERN UPPER MICHIGAN

CITY           SKY/WX    TMP DP  RH WIND       PRES   REMARKS
KINROSS        CLOUDY    34  34 100 SE9       30.23S
MACKINAC ISLAN FLURRIES  36  33  90 SE12G17   30.22F
NEWBERRY       LGT RAIN  36  34  93 S13       30.17F
S. S. MARIE    LGT RAIN  34  30  85 E6        30.26R
$$
MIZ004>006-011>014-085-201200-
CENTRAL UPPER MICHIGAN

CITY           SKY/WX    TMP DP  RH WIND       PRES   REMARKS
MANISTIQUE     MIX PCPN  35  34  96 SE9G17    30.17F
ESCANABA       CLOUDY    37  34  87 S14G21    30.11F
MENOMINEE      CLOUDY    45  39  81 S9        30.13F
SAWYER-GWINN   CLOUDY    37  36  93 S12       30.08S FOG
$$
MIZ001>003-009>011-084-201200-
WESTERN UPPER MICHIGAN

CITY           SKY/WX    TMP DP  RH WIND       PRES   REMARKS
IRON MOUNTAIN  CLOUDY    40  38  93 SE3       30.07F FOG
HOUGHTON       CLEAR     42  34  73 S6        30.01S
COPPER HARBOR    N/A     42  34  73 SW12G18   30.00S
IRONWOOD       MOCLDY    45  37  76 CALM      29.99S
$$

ABBREVIATIONS USED IN REMARKS
   TC - TEMPERATURE IN CELSIUS
  WCI - WIND CHILL INDEX
   HX - HEAT INDEX
  VSB - VISIBILITY




USA.gov is the U.S. government's official web portal to all federal, state and local government web resources and services.